Weather History for KASJ - November, 2013

Change the Weather History Date:

Tuesday, November 26, 2013

  Actual Average (KEMV) Record (KEMV)
Temperature  
Mean Temperature 48 °F -  
Max Temperature 66 °F 59 °F 71 °F (1987)
Min Temperature 31 °F 33 °F 21 °F (2005)
Degree Days  
Heating Degree Days 18    
Moisture  
Dew Point 40 °F    
Average Humidity 80    
Maximum Humidity 96    
Minimum Humidity 60    
Precipitation  
Precipitation 0.00 in - - ()
Sea Level Pressure  
Sea Level Pressure 30.08 in    
Wind  
Wind Speed 3 mph (East)    
Max Wind Speed 18 mph    
Max Gust Speed 26 mph    
Visibility 9 miles    
Events      
Averages and records for this station are not official NWS values.
T = Trace of Precipitation, MM = Missing Value Source: NWS Daily Summary

Daily Weather History Graph

Daily Weather History Graph

Search for Another Location

Airport or City:

Trip Planner

Search our weather history database for the weather conditions in past years. The results will help you decide how hot, cold, wet, or windy it might be!

Date:

Astronomy

Nov. 26, 2013 Rise Set
Actual Time 6:57 AM EST 4:54 PM EST
Civil Twilight 6:28 AM EST 5:22 PM EST
Nautical Twilight 5:57 AM EST 5:54 PM EST
Astronomical Twilight 5:26 AM EST 6:25 PM EST
Moon 12:09 AM EST (11/26) 12:50 PM EST (11/26)
Length of Visible Light 10h 54m
Length of Day
9h 57m
Last Quarter, 41% of the Moon is Illuminated
Nov 26
Last Quarter
Dec 2
New
Dec 9
First Quarter
Dec 17
Full
Dec 25
Last Quarter

Hourly Weather History & Observations

Time (EST) Temp. Windchill Dew Point Humidity Pressure Visibility Wind Dir Wind Speed Gust Speed Precip Events Conditions
12:15 AM 31.6 °F - 19.2 °F 60% 30.42 in 10.0 mi Calm Calm - N/A   Clear
12:35 AM 31.1 °F - 22.3 °F 70% 30.40 in 10.0 mi Calm Calm - N/A   Clear
12:55 AM 31.5 °F - 21.4 °F 66% 30.40 in 10.0 mi Calm Calm - N/A   Clear
1:15 AM 31.3 °F - 21.0 °F 66% 30.39 in 10.0 mi Calm Calm - N/A   Clear
1:35 AM 31.3 °F - 20.3 °F 64% 30.39 in 10.0 mi Calm Calm - N/A   Clear
1:55 AM 31.1 °F - 21.0 °F 66% 30.37 in 10.0 mi Calm Calm - N/A   Clear
2:15 AM 31.5 °F - 21.9 °F 68% 30.38 in 10.0 mi Calm Calm - N/A   Clear
2:35 AM 31.5 °F - 21.9 °F 68% 30.37 in 10.0 mi Calm Calm - N/A   Clear
2:55 AM 31.8 °F - 21.4 °F 65% 30.34 in 10.0 mi Calm Calm - N/A   Clear
3:15 AM 32.0 °F - 22.3 °F 67% 30.33 in 10.0 mi Calm Calm - N/A   Clear
3:35 AM 32.2 °F - 22.8 °F 68% 30.32 in 10.0 mi Calm Calm - N/A   Clear
3:55 AM 32.9 °F - 23.0 °F 67% 30.32 in 10.0 mi Calm Calm - N/A   Clear
4:15 AM 32.9 °F - 23.2 °F 67% 30.31 in 10.0 mi Calm Calm - N/A   Scattered Clouds
4:35 AM 32.9 °F - 23.5 °F 68% 30.32 in 10.0 mi Calm Calm - N/A   Clear
4:55 AM 33.3 °F 28.9 °F 24.8 °F 71% 30.31 in 10.0 mi North 4.6 mph - N/A   Mostly Cloudy
5:15 AM 33.8 °F 30.8 °F 25.2 °F 71% 30.31 in 10.0 mi North 3.5 mph - N/A   Overcast
5:35 AM 34.0 °F - 25.5 °F 71% 30.31 in 10.0 mi Calm Calm - N/A   Overcast
5:55 AM 34.7 °F - 25.7 °F 70% 30.30 in 10.0 mi Calm Calm - N/A   Overcast
6:15 AM 34.7 °F - 26.1 °F 71% 30.29 in 10.0 mi Calm Calm - N/A   Overcast
6:35 AM 35.1 °F 32.2 °F 26.2 °F 70% 30.29 in 10.0 mi NNE 3.5 mph - N/A   Overcast
6:55 AM 35.2 °F - 26.4 °F 70% 30.30 in 10.0 mi Calm Calm - N/A   Overcast
7:15 AM 35.8 °F 33.0 °F 27.0 °F 70% 30.30 in 10.0 mi NNE 3.5 mph - N/A   Overcast
7:35 AM 36.1 °F 33.5 °F 27.0 °F 69% 30.29 in 10.0 mi North 3.5 mph - N/A   Overcast
7:55 AM 36.5 °F 33.9 °F 27.1 °F 69% 30.29 in 10.0 mi NNE 3.5 mph - N/A   Overcast
8:15 AM 37.4 °F 34.9 °F 27.5 °F 67% 30.29 in 10.0 mi North 3.5 mph - N/A   Scattered Clouds
8:35 AM 37.8 °F 35.3 °F 27.7 °F 67% 30.27 in 10.0 mi NE 3.5 mph - N/A   Scattered Clouds
8:55 AM 38.8 °F 35.4 °F 28.2 °F 66% 30.26 in 10.0 mi NNE 4.6 mph - N/A   Scattered Clouds
9:15 AM 40.1 °F - 28.2 °F 63% 30.26 in 10.0 mi Calm Calm - N/A   Mostly Cloudy
9:35 AM 41.0 °F 39.0 °F 29.3 °F 63% 30.25 in 10.0 mi NE 3.5 mph - N/A   Overcast
9:55 AM 41.5 °F - 30.2 °F 64% 30.23 in 10.0 mi Calm Calm - N/A   Mostly Cloudy
10:15 AM 42.6 °F 39.9 °F 31.8 °F 66% 30.22 in 10.0 mi ENE 4.6 mph - N/A   Scattered Clouds
10:35 AM 43.5 °F 41.9 °F 33.1 °F 67% 30.21 in 10.0 mi ENE 3.5 mph - N/A   Scattered Clouds
10:55 AM 44.1 °F 42.5 °F 34.5 °F 69% 30.19 in 10.0 mi NE 3.5 mph - N/A   Scattered Clouds
11:15 AM 44.6 °F - 36.0 °F 72% 30.17 in 10.0 mi Calm Calm - N/A   Scattered Clouds
11:35 AM 44.2 °F - 37.4 °F 77% 30.17 in 10.0 mi Calm Calm - N/A   Clear
11:55 AM 44.2 °F - 38.7 °F 81% 30.15 in 10.0 mi Calm Calm - N/A   Mostly Cloudy
12:15 PM 43.9 °F 42.3 °F 39.7 °F 85% 30.13 in 10.0 mi NNE 3.5 mph - N/A   Overcast
12:35 PM 45.0 °F 43.5 °F 40.8 °F 85% 30.11 in 10.0 mi NNE 3.5 mph - N/A   Overcast
12:55 PM 45.9 °F 44.6 °F 41.0 °F 83% 30.11 in 10.0 mi NNE 3.5 mph - N/A   Overcast
1:15 PM 45.9 °F 43.6 °F 41.4 °F 84% 30.09 in 10.0 mi North 4.6 mph - N/A   Overcast
1:35 PM 45.5 °F - 42.6 °F 90% 30.09 in 10.0 mi Calm Calm - N/A   Overcast
1:55 PM 45.1 °F 42.8 °F 42.8 °F 91% 30.07 in 10.0 mi North 4.6 mph - N/A   Overcast
2:15 PM 45.5 °F 44.2 °F 43.5 °F 93% 30.06 in 7.0 mi NNE 3.5 mph - N/A   Overcast
2:35 PM 46.0 °F 44.8 °F 44.2 °F 93% 30.04 in 5.0 mi NE 3.5 mph - N/A   Overcast
2:55 PM 46.6 °F - 45.0 °F 94% 30.03 in 5.0 mi NE 3.5 mph - N/A   Overcast
3:15 PM 46.9 °F - 45.5 °F 95% 30.01 in 4.0 mi NNE 5.8 mph - N/A   Overcast
3:35 PM 48.2 °F - 46.8 °F 95% 30.00 in 4.0 mi ENE 4.6 mph - N/A   Overcast
3:55 PM 49.6 °F - 48.4 °F 95% 29.98 in 5.0 mi NE 4.6 mph - N/A   Overcast
4:15 PM 50.9 °F - 49.6 °F 95% 29.96 in 4.0 mi East 4.6 mph - N/A   Overcast
4:35 PM 52.0 °F - 50.9 °F 96% 29.94 in 5.0 mi East 4.6 mph - N/A   Overcast
4:55 PM 53.6 °F - 52.5 °F 96% 29.93 in 7.0 mi ESE 3.5 mph - N/A   Overcast
5:15 PM 55.9 °F - 54.7 °F 96% 29.90 in 7.0 mi ESE 11.5 mph - N/A   Overcast
5:35 PM 57.2 °F - 55.6 °F 94% 29.87 in 10.0 mi ESE 11.5 mph 16.1 mph N/A   Overcast
5:55 PM 57.7 °F - 56.3 °F 95% 29.86 in 10.0 mi ESE 10.4 mph 16.1 mph N/A   Overcast
6:15 PM 58.1 °F - 56.5 °F 94% 29.85 in 10.0 mi ESE 11.5 mph 19.6 mph N/A   Overcast
6:35 PM 58.6 °F - 56.8 °F 94% 29.83 in 10.0 mi ESE 10.4 mph 17.3 mph N/A   Overcast
6:55 PM 59.0 °F - 57.2 °F 94% 29.82 in 7.0 mi SE 10.4 mph - N/A   Overcast
7:15 PM 59.5 °F - 57.7 °F 94% 29.80 in 10.0 mi SE 11.5 mph 20.7 mph N/A   Overcast
7:35 PM 60.1 °F - 58.3 °F 94% 29.78 in 10.0 mi SE 13.8 mph 20.7 mph N/A   Overcast
7:55 PM 60.8 °F - 58.6 °F 93% 29.74 in 10.0 mi SE 13.8 mph 25.3 mph N/A   Overcast
8:15 PM 61.5 °F - 59.4 °F 93% 29.74 in 10.0 mi SE 16.1 mph 20.7 mph N/A   Overcast
8:35 PM 62.1 °F - 59.9 °F 93% 29.72 in 10.0 mi SE 13.8 mph 25.3 mph N/A   Overcast
8:55 PM 62.8 °F - 60.3 °F 91% 29.70 in 10.0 mi SSE 15.0 mph 26.5 mph N/A   Overcast
9:15 PM 63.0 °F - 60.8 °F 93% 29.69 in 10.0 mi SSE 17.3 mph 25.3 mph N/A   Overcast
9:35 PM 63.5 °F - 61.2 °F 92% 29.67 in 7.0 mi SSE 15.0 mph 23.0 mph N/A   Overcast
9:55 PM 63.7 °F - 61.3 °F 92% 29.65 in 7.0 mi SSE 18.4 mph 23.0 mph N/A   Overcast
10:15 PM 63.7 °F - 61.7 °F 93% 29.65 in 5.0 mi SSE 15.0 mph 26.5 mph N/A   Mostly Cloudy
10:35 PM 64.4 °F - 62.1 °F 92% 29.63 in 7.0 mi SSE 13.8 mph 26.5 mph N/A   Overcast
10:55 PM 64.8 °F - 62.8 °F 93% 29.63 in 10.0 mi South 8.1 mph 21.9 mph N/A   Overcast
11:15 PM 64.4 °F - 62.4 °F 93% 29.63 in 5.0 mi SSW 3.5 mph - N/A   Overcast
11:35 PM 64.9 °F - 63.0 °F 93% 29.61 in 10.0 mi South 10.4 mph - N/A   Overcast
11:55 PM 65.5 °F - 63.5 °F 93% 29.60 in 10.0 mi South 11.5 mph - N/A   Overcast